COSMOS 374 DEB

Satellite information

Favourite Embed

Satellite Type and Status

DEBRISIN ORBIT

Key statistics

Satellite COSMOS 374 DEB at a glance.

Uptime

19919

Days in orbit

Revolutions

≈ 13.0

Per day

Orbit

LEO

Low Earth Orbit

Inclination

63.0

Latest

Satellite identification and parameters

Extended collection of information and parameters for COSMOS 374 DEB.

Object identification

Identified? True

Debris? True

Object name: COSMOS 374 DEB

International designator: 1970-089BS

Object number (NORAD): 5337

Object ID (CCSDS): 5337

Country: COMMONWEALTH OF INDEPENDENT STATES (CIS)

Current information (Y/N): Y

RCS size: SMALL

Orbital parameters

Period: 110.88 minutes

Inclination: 62.9604 deg

SMA: 7645.319 km

Apoapsis: 1841.837 km

Periapsis: 692.531 km

RAAN: 71.631 deg

Eccentricy: 0.075164

Argument of periapsis: 298.574 deg

Mean anomaly: 54.1607 deg

Mean motion: 12.98701476 rev/day

Mean motion (dot): 0.00001636 rev/day2

B* drag term: 0.0015249 1/REarth

Two-line elements (TLE)

Creation date: May 4, 2025, 5:21 p.m.

Reference frame: TEME

Reference center: EARTH

Epoch: May 4, 2025, 6:49 a.m. UTC

TLE line 0: 0 COSMOS 374 DEB

TLE line 1: 1 05337U 70089BS 25124.28417663 .00001636 00000-0 15249-2 0 9992

TLE line 2: 2 05337 62.9604 71.6310 0751640 298.5740 54.1607 12.98701476 97377

Live tracking on map

Real-time ground track for satellite COSMOS 374 DEB.

In-orbit conjunctions

A list of the most updated potential collisions computed for object COSMOS 374 DEB.

Target Orbit TCA Probability of collision Miss distance Type
TRIAD 1 LEO 2025-04-12 09:33:19 0.0002029242 110.0 (m) PAYLOAD

Associated space launch

The I2P satellites were the first soviet coorbital ASAT system.

COSMOS 374 DEB was lifted into orbit during the mission ‘Tsiklon-2 | I2P 4’, on board a Tsiklon-2 space rocket.

The launch took place on Oct. 23, 1970, 4:42 a.m. from 90/20.

For more information about the launch, click the button.

Launch to space Tsiklon-2 | I2P 4
Tsiklon-2 | I2P 4

Agency: N/A

Status: Launch Successful

Launch date: Oct. 23, 1970, 4:42 a.m. UTC

Rocket: Tsiklon-2

Launch pad: 90/20

Location: Baikonur Cosmodrome, Republic of Kazakhstan

...

Latest news about this satellite

There are no fresh news available about this satellite. Check back as we update our databases every day.


Newsletter sign-up

Weekly statistics, charts and insights to help you stay on top of the space industry.